CST,Max TemperatureF,Mean TemperatureF,Min TemperatureF,Max Dew PointF,MeanDew PointF,Min DewpointF,Max Humidity, Mean Humidity, Min Humidity, Max Sea Level PressureIn, Mean Sea Level PressureIn, Min Sea Level PressureIn, Max VisibilityMiles, Mean VisibilityMiles, Min VisibilityMiles, Max Wind SpeedMPH, Mean Wind SpeedMPH, Max Gust SpeedMPH,PrecipitationIn, CloudCover, Events, WindDirDegrees
2012-11-1,60,50,40,39,34,26,70,58,46,30.02,29.97,29.94,10,10,9,17,7,21,0.00,4,,333
2012-11-2,49,43,36,31,28,26,70,58,46,30.10,30.06,30.02,10,10,10,14,8,18,0.00,8,,80
2012-11-3,55,46,37,32,29,27,70,54,38,30.22,30.17,30.10,10,10,7,9,4,16,0.00,4,,42
2012-11-4,50,45,39,41,35,30,89,77,65,30.23,30.17,30.08,10,9,4,13,6,20,0.20,8,Rain,127
2012-11-5,45,43,40,39,37,35,89,80,70,30.17,30.12,30.07,8,5,2,14,7,18,0.17,8,Rain,112
2012-11-6,54,48,41,40,37,32,89,70,50,30.06,29.95,29.90,10,7,2,26,14,36,0.01,7,Rain,271
2012-11-7,47,41,35,36,33,29,79,66,53,30.17,30.11,30.01,10,10,9,23,7,32,T,6,Rain,17
2012-11-8,62,48,34,37,34,29,82,59,36,30.13,30.01,29.93,10,10,10,21,11,24,0.00,0,,150
2012-11-9,62,53,43,51,43,36,82,69,55,29.94,29.86,29.78,10,10,10,14,7,18,0.00,6,,102
2012-11-10,78,68,58,57,54,48,84,66,47,29.75,29.64,29.56,10,10,10,30,19,41,T,4,,177
2012-11-11,70,47,24,54,33,15,92,73,53,30.16,29.84,29.64,10,7,2,28,16,35,0.91,7,Rain,304
2012-11-12,39,30,21,19,17,15,77,59,40,30.43,30.28,30.16,10,10,10,26,11,35,0.00,1,,260
2012-11-13,52,38,23,31,23,16,81,57,32,30.46,30.40,30.35,10,10,10,15,8,17,0.00,5,,157
2012-11-14,58,47,36,32,28,24,82,55,28,30.37,30.31,30.27,10,10,10,20,9,24,0.00,5,,185
2012-11-15,60,49,38,34,31,28,70,54,37,30.44,30.31,30.25,10,10,10,17,7,21,0.00,4,,298
2012-11-16,54,41,27,34,30,24,85,65,44,30.49,30.44,30.39,10,10,8,9,4,12,0.00,0,,145
2012-11-17,62,49,35,36,32,30,82,58,34,30.40,30.34,30.27,10,10,9,22,11,26,0.00,2,,155
2012-11-18,60,51,41,37,32,29,62,50,37,30.27,30.21,30.15,10,10,10,18,12,23,T,7,Rain,161
2012-11-19,62,53,44,45,40,35,76,64,52,30.14,30.07,30.01,10,10,10,18,8,22,0.04,2,Rain,187
2012-11-20,60,49,37,42,37,34,85,66,47,30.20,30.16,30.07,10,8,4,9,6,12,0.00,0,,291
2012-11-21,71,55,39,44,39,34,86,62,37,30.17,30.04,29.89,10,9,7,26,12,31,0.00,2,,184
2012-11-22,68,53,38,48,38,27,70,55,39,30.16,29.89,29.73,10,10,10,32,17,41,0.00,3,,246
2012-11-23,38,30,22,25,15,12,70,56,41,30.44,30.36,30.17,10,10,10,36,19,45,T,3,,315
2012-11-24,33,23,12,22,16,11,92,75,58,30.41,30.16,29.88,10,10,10,17,8,22,0.00,6,,177
2012-11-25,40,37,34,26,24,21,64,56,48,30.19,30.02,29.87,10,10,10,16,7,20,0.00,8,,345
2012-11-26,34,25,16,21,13,7,63,51,39,30.49,30.38,30.20,10,10,10,20,10,25,0.00,6,,360
2012-11-27,37,25,12,17,12,6,80,58,35,30.47,30.36,30.24,10,10,10,16,7,18,0.00,3,,208
2012-11-28,48,35,21,26,22,17,84,61,38,30.44,30.32,30.18,10,10,7,12,5,14,0.00,3,,181
2012-11-29,54,43,31,35,31,26,82,66,50,30.16,30.05,29.98,10,10,7,12,7,14,0.00,3,,161
2012-11-30,52,40,28,37,33,27,92,76,59,30.09,30.04,29.98,8,6,1,9,4,21,0.00,4,Fog,81